Regional Weather Roundup
Issued by NWS

Home | Current Version | Previous Version | Text Only | Print | Product List | Glossary Off
Versions: 1 2 3 4 5 6 7 8 9 10 11 12 13 14 15 16 17 18 19 20 21 22 23 24 25 26 27 28 29 30 31 32 33 34 35 36 37 38 39 40 41 42 43 44 45 46 47 48 49 50

866
ASUS43 KIND 262209
RWRIN

WEATHER ROUNDUP FOR INDIANA
NATIONAL WEATHER SERVICE INDIANAPOLIS IN
600 PM EDT SUN MAR 26 2017

NOTE: "FAIR" INDICATES FEW OR NO CLOUDS BELOW 12,000 FEET WITH NO
SIGNIFICANT WEATHER AND/OR OBSTRUCTIONS TO VISIBILITY.

* - STATION DOES NOT REPORT WEATHER SUCH AS PRECIPITATION OR FOG.

+ - STATION NOT QUALITY CONTROLLED BY THE NATIONAL WEATHER SERVICE.
    USE DATA WITH CAUTION...ESPECIALLY DEWPOINT AND RELATIVE
    HUMIDITY OBSERVATIONS.

INZ001>003-010>013-019-020-262300-
NORTHWEST INDIANA

CITY           SKY/WX    TMP DP  RH WIND       PRES   REMARKS
GARY /AIRPORT/ PTSUNNY   61  50  67 W12G23    29.83R
KNOX *+        CLOUDY    57  43  58 SW5       29.82S
LA PORTE +     RAIN      58  54  88 SW14      29.83S
MICHIGAN CITY+ CLOUDY    59  55  88 SW6       29.83R
MONTICELLO +   RAIN      60  53  79 SW7       29.83S
RENSSELAER +   CLOUDY    61  54  77 SW12      29.83S
VALPARAISO     CLOUDY    62  54  74 W15G22    29.83R

$$

LMZ046-743>745-262300-
SOUTHERN LAKE MICHIGAN

STATION/POSITION TIME  TEMP    WIND        PRES    WAVE
                       AIR SEA DIR/SP/G            HT
                 (UTC) (F)     (DEG/KT/KT) (MB)    (FT)
BURNS HARBOR     2140   52     270/  9/ 12 1010.2S
MICHIGAN CITY    2140   51      40/  4/  4   N/A

$$

INZ004-005-014>016-021>024-262300-
NORTH CENTRAL INDIANA

CITY           SKY/WX    TMP DP  RH WIND       PRES   REMARKS
ELKHART        MOSUNNY   57  54  88 CALM      29.84R
GOSHEN         CLOUDY    59  53  80 SW8       29.84S
LOGANSPORT +   CLOUDY    59  52  77 SW9       29.85S
PERU/GRISSOM   PTSUNNY   60  59  97 SW12      29.84R
ROCHESTER +    CLOUDY    63  55  77 W8        29.85R
SOUTH BEND     LGT RAIN  56  56 100 S6        29.84F
WARSAW +       CLOUDY    59  54  82 SW5       29.84F

$$

INZ006>009-017-018-025>027-262300-
NORTHEAST INDIANA

CITY           SKY/WX    TMP DP  RH WIND       PRES   REMARKS
ANGOLA *+      PTSUNNY   55  48  76 SE5       29.85S
AUBURN +       LGT RAIN  54  50  87 CALM      29.86S
FORT WAYNE     TSTM      57  52  83 SW15      29.86S
HUNTINGTON +   RAIN      54  53  96 SW3       29.86R
KENDALLVILLE + CLOUDY    56  55  96 CALM      29.85S

$$

INZ028-029-035-036-043>045-051>053-262300-
WEST CENTRAL INDIANA

CITY           SKY/WX    TMP DP  RH WIND       PRES   REMARKS
CRAWFORDSVL +  CLOUDY    58  52  82 SW13      29.86S
GREENCASTLE +  CLOUDY    57  52  82 SW6       29.88R
LAFAYETTE      CLOUDY    59  50  72 SW15G23   29.84R
TERRE HAUTE    CLOUDY    60  48  64 SW16G22   29.88R

$$

INZ030>032-037>040-046>048-054>057-064-065-262300-
CENTRAL INDIANA

CITY           SKY/WX    TMP DP  RH WIND       PRES   REMARKS
CP ATTERBURY + CLOUDY    63  52  67 SW6       29.89S
COLUMBUS       CLOUDY    59  57  94 S9        29.89S
FISHERS *+     CLOUDY    57  57 100 S5        29.87S
FRANKFORT +    CLOUDY    62  55  79 SW12      29.86S
GREENWOOD *+   CLOUDY    61  56  83 SW6       29.88S
INDIANAPOLIS   CLOUDY    60  55  83 S12       29.86S
-EAGLE CREEK   CLOUDY    60  54  80 S9        29.85S
KOKOMO +       CLOUDY    58  54  86 SW9       29.86S
MARION +       CLOUDY    57  53  85 S15       29.87R
MT COMFORT *+  CLOUDY    59  54  82 SW8       29.87F
SHELBYVILLE    PTSUNNY   61  54  77 S9        29.87F
ZIONSVILLE +   CLOUDY    60  53  77 SW14      29.87S

$$

INZ033-034-041-042-049-050-058-059-262300-
EAST CENTRAL INDIANA

CITY           SKY/WX    TMP DP  RH WIND       PRES   REMARKS
MUNCIE         CLOUDY    58  52  80 S6        29.87F
RICHMOND +     CLOUDY    55  54  94 SW7       29.91S

$$

INZ060-061-067>069-081>083-085>088-262300-
SOUTHWEST INDIANA

CITY           SKY/WX    TMP DP  RH WIND       PRES   REMARKS
EVANSVILLE     MOSUNNY   65  48  54 W16       29.92R
HUNTINGBURG *+ MOSUNNY   65  52  62 SW15      29.91R
WASHINGTON +   PTSUNNY   62  49  61 MISG      29.90S

$$

INZ062-063-066-070>080-084-089>092-262300-
SOUTH CENTRAL AND SOUTHEAST INDIANA

CITY           SKY/WX    TMP DP  RH WIND       PRES   REMARKS
BEDFORD +      CLOUDY    61  54  77 SW7       29.89R
BLOOMINGTON    MOSUNNY   60  53  77 SW12      29.88S
MADISON *+     CLOUDY    59  54  82 NW6       29.93R
NORTH VERNON + CLOUDY   N/A N/A N/A S8        29.91R
SEYMOUR +      CLOUDY    61  57  88 S8        29.89F

$$





USA.gov is the U.S. government's official web portal to all federal, state and local government web resources and services.